Simultaneous Nadir Overpasses (SNOs) Predictions

Prediction of SNOs between GOES-17 and METOP-B Satellite Orbit:

Table of predicted SNOs for the next 14.0 days since TLE Epoch: 2/1/2025
Index Date Time (GOES-17) GOES-17 Lat,Lon METOP-B Lat,Lon Distance(km) Time Diff (sec)
1 02/01/2025 16:10:47 0.00,-104.67 0.04,-104.77 11.98 80
2 02/04/2025 04:09:19 -0.00,-104.67 0.05,-104.45 26.04 80
3 02/05/2025 16:28:17 -0.00,-104.69 0.96,-109.06 497.36 80
4 02/06/2025 16:10:22 -0.00,-104.69 -0.14,-104.08 69.62 80
5 02/08/2025 04:29:28 0.01,-104.70 -0.90,-108.72 458.86 80
6 02/09/2025 04:06:13 0.00,-104.70 0.21,-103.75 107.66 80
7 02/10/2025 16:25:11 -0.01,-104.71 0.78,-108.36 416.18 80
8 02/11/2025 16:07:14 -0.00,-104.72 -0.27,-103.38 151.30 80
9 02/13/2025 04:26:21 0.01,-104.73 -0.75,-108.02 375.69 80
10 02/14/2025 04:03:05 -0.00,-104.74 0.37,-103.06 191.57 80
